Simultaneous Nadir Overpasses (SNOs) Predictions

Prediction of SNOs between LANDSAT-8 and NPP Satellite Orbit:

Table of predicted SNOs for the next 14.0 days since TLE Epoch: 9/24/2016
Index Date (LANDSAT-8) Time (LANDSAT-8) Lat,Lon (LANDSAT-8) SZA (LANDSAT-8 ) Date (NPP) Time (NPP) Lat,Lon (NPP) SZA (NPP ) Distance(km) Time Diff (sec)
1 09/24/2016 06:58:37 70.11, 71.89 70.67 09/24/2016 06:58:14 70.14, 71.87 70.70 2.85 23
2 09/24/2016 07:48:07 -70.00,-120.64 109.43 09/24/2016 07:48:55 -70.01,-120.62 109.42 1.96 48
3 09/26/2016 22:25:39 -70.21, 20.26 108.21 09/26/2016 22:24:27 -70.22, 20.19 108.19 3.08 72
4 09/26/2016 23:15:06 70.11,-172.24 71.71 09/26/2016 23:15:11 70.09,-172.30 71.70 2.77 5
5 09/27/2016 00:04:38 -69.89, -4.92 108.50 09/27/2016 00:05:50 -69.86, -4.62 108.53 11.75 72
6 09/29/2016 14:42:09 -70.15, 136.06 107.23 09/29/2016 14:41:23 -70.13, 136.10 107.25 3.11 46
7 09/29/2016 15:31:36 70.04, -56.45 72.68 09/29/2016 15:32:08 70.05, -56.47 72.69 0.89 32
8 10/02/2016 06:08:58 70.74, 85.17 74.39 10/02/2016 06:07:49 70.79, 83.48 74.46 62.27 69
9 10/02/2016 06:58:37 -70.14,-108.08 106.20 10/02/2016 06:58:20 -70.14,-108.15 106.20 2.71 17
10 10/02/2016 07:48:04 70.03, 59.41 73.71 10/02/2016 07:49:04 70.01, 59.35 73.69 3.11 60
11 10/04/2016 22:25:37 70.17,-159.79 74.85 10/04/2016 22:24:35 70.18,-159.78 74.86 1.24 62
12 10/04/2016 23:15:07 -70.06, 7.70 105.24 10/04/2016 23:15:16 -70.04, 7.75 105.26 3.12 9
13 10/05/2016 00:04:43 69.45, 174.50 74.17 10/05/2016 00:05:52 69.49, 175.87 74.20 53.58 69
14 10/07/2016 14:42:06 70.14, -43.94 75.85 10/07/2016 14:41:32 70.14, -43.96 75.85 0.88 34
15 10/07/2016 15:31:36 -70.04, 123.55 104.24 10/07/2016 15:32:14 -70.06, 123.49 104.22 2.97 38




NCC Satellite Simultaneous Nadir Overpasses (SNOs) Prediction Service
